User: anonymous   Login
Location: Unspecified
(0.0000°N, 0.0000°E)
Time: 15:12:51
(UTC+02:00)
Language:

Ariane H10 - Orbit

View from above orbital plane
View from above orbital plane
View from above satellite
View from above satellite

Ground track
Ground track

The orbit data is extracted from the following two-line orbital elements,

1 19622U 88098B   15186.43310867  .00012873  00000-0  20276-2 0  9996
2 19622 003.8844 287.7199 6461191 011.7578 015.1386 03.38467077279871
Epoch (UTC): 05 July 2015 10:23:40
Eccentricity: 0.6461191
inclination: 3.8844°
perigee height: 253 km
apogee height: 24466 km
right ascension of ascending node: 287.7199°
argument of perigee: 11.7578°
revolutions per day: 3.38467077
mean anomaly at epoch: 15.1386°
orbit number at epoch: 27987

The dashed part of the orbit path shows where the satellite is in the earth's shadow,  

DLR